CZ-6A DEB, 56684

Orbit data source: Space-Track

CZ-6A DEB, 56684 is space debris in SSO originally from a launch on Fri, 11 Nov 2022 UTC launched from the Taiyaun Space Center, China (TSC). Debris objects in space refer to the collection of defunct objects orbiting the Earth. Examples of debris include non-operational satellites, rocket bodies, and fragments generated from explosions, collisions, or faulty payload assembly.

Loading next visibility...
Identifier
56684, 2022-151AHL
Orbit
SSO
Country
Flag of CNCN / PRC
Related business
Manufacturer
SAST
Mission
Spacecraft
Bus & Motor
Unknown
Mass
Unknown
Launch date (UTC)
2022-11-11 (3 years ago)
Launch vehicle
Unknown
Launch site
Taiyaun Space Center, China (TSC)
Object type
Payload
Rocket body
Debris
Shape & HBR
Unknown shape, 0.1 m
Radar Cross Section
Small (<0.1 m²)

Expand to show TLE details & history
Last TLE update: 19 hours ago

TLE from 19 hours ago
0 CZ-6A DEB
1 56684U 22151AHL 25349.22536394  .00001983  00000-0  13065-2 0  9995
2 56684  98.8956 327.8507 0105371 197.6868 162.0617 14.00257020133067
Epoch: 2025-12-15T05:24Z
TLE epoch observation values (Epoch: 2025-12-15T05:24:31.444Z)
Latitude
-0.00005°
Longitude
162.59271°
Altitude
968.768 km
Speed
7.33 km/s
True Right ascension
21h 51m 24s
True Declination
0° 00' 00"
Sunlit
Object was in daylight at epoch
Visualization orbit readout
Latitude
Unknown
Longitude
Unknown
Altitude
Unknown
Speed
Unknown
Apparent Right ascension
Unknown
Apparent Declination
Unknown
Sunlit
N/A
Visualization observer readout
Local Sidereal Time
22:49:11
Azimuth
Unknown
Elevation
Unknown
Doppler factor
Unknown
Orbital elements
Apogee altitude
966.685 km
Perigee altitude
813.513 km
Semi-major axis
7,268.236 km
Eccentricity
0.01054
Inclination
98.8956°
RAAN
327.8507°
Arg. of periapsis
197.6868°
True anomaly
162.42898°
Mean anomaly
162.0617°
Eccentric anomaly
162.2458°
Mean motion
3.50267 °/min
Orbital period
102.78 mins
BSTAR
0.0013065
Loading maneuver chart data...
Computing Atmospheric mass density...

Documentation

Showing up to 5 results
|